GW3271 Weather Reports


Display with metric or nautical units.
time (UTC)temp
F
wind
direction
speed
MPH
gust
MPH
rain 1hr
in
rain 24hr
in
rain mn
in
humidity
%
barometer
mb
20260507093028 60 64 0.0 6.0 0.00 0.02 0.00 84 1015.9
20260507091528 60 0 0.0 5.0 0.00 0.02 0.00 83 1016.2
20260507090030 60 71 0.0 4.0 0.00 0.02 0.00 83 1015.9
20260507084529 60 0 0.0 6.0 0.00 0.02 0.00 83 1015.7
20260507083029 60 0 0.0 4.0 0.00 0.02 0.00 83 1015.8
20260507081526 60 70 0.0 5.0 0.00 0.02 0.00 82 1015.2
20260507080036 60 0 1.0 7.0 0.00 0.02 0.00 82 1015.2
20260507074529 61 120 0.0 8.0 0.00 0.02 0.00 82 1015.1
20260507073026 61 0 0.0 7.0 0.00 0.02 0.00 81 1015.3
20260507071556 61 45 0.0 7.0 0.00 0.02 0.00 80 1015.2
20260507070030 61 98 1.0 6.0 0.00 0.02 0.00 80 1015.6
20260507064530 61 32 4.0 9.0 0.00 0.02 0.00 79 1015.5
20260507063031 61 103 2.0 7.0 0.00 0.02 0.00 79 1014.9
20260507061530 62 63 2.0 8.0 0.00 0.02 0.00 79 1015.3
20260507060026 62 64 3.0 9.0 0.00 0.02 0.00 79 1015.1
20260507054528 62 101 1.0 4.0 0.00 0.02 0.00 79 1015.5
20260507053039 62 80 2.0 8.0 0.00 0.02 0.00 79 1015.3
20260507051538 62 90 2.0 8.0 0.00 0.02 0.00 78 1014.9
20260507050034 62 104 1.0 8.0 0.00 0.02 0.00 79 1014.9
20260507044531 62 57 0.0 6.0 0.00 0.02 0.02 79 1015.2
20260507043027 62 64 2.0 7.0 0.00 0.02 0.02 80 1015.4
20260507041526 62 87 2.0 7.0 0.00 0.02 0.02 80 1014.9
20260507040029 62 0 0.0 4.0 0.00 0.02 0.02 80 1015.1
20260507034536 63 56 2.0 8.0 0.00 0.02 0.02 79 1014.9
20260507033039 63 38 1.0 7.0 0.00 0.02 0.02 80 1015.2
20260507031529 63 148 0.0 7.0 0.00 0.02 0.02 79 1015.0
20260507030028 63 37 1.0 6.0 0.00 0.02 0.02 79 1014.8
20260507024530 64 75 1.0 7.0 0.00 0.02 0.02 79 1014.5
20260507023033 64 0 0.0 5.0 0.00 0.02 0.02 79 1014.5
20260507021526 64 0 0.0 3.0 0.00 0.02 0.02 79 1014.0
20260507020028 64 0 0.0 6.0 0.00 0.02 0.02 79 1014.2
20260507014529 64 0 1.0 5.0 0.00 0.02 0.02 79 1013.9
20260507013029 64 89 0.0 2.0 0.00 0.02 0.02 78 1013.6
20260507011534 64 342 0.0 4.0 0.00 0.02 0.02 78 1013.5
20260507010027 64 0 0.0 2.0 0.00 0.02 0.02 77 1013.2
20260507004536 64 125 0.0 3.0 0.00 0.02 0.02 77 1013.0
20260507003029 65 89 0.0 3.0 0.00 0.02 0.02 77 1012.8
20260507001525 64 75 1.0 7.0 0.00 0.02 0.02 77 1012.7
20260507000027 65 89 1.0 7.0 0.00 0.02 0.02 76 1012.5
20260506234530 65 56 1.0 8.0 0.00 0.02 0.02 76 1012.7
20260506233028 65 0 0.0 8.0 0.00 0.02 0.02 76 1012.4
20260506231528 64 0 2.0 9.0 0.00 0.02 0.02 77 1012.4
20260506230027 64 136 2.0 8.0 0.00 0.02 0.02 76 1012.5
20260506224527 65 146 0.0 5.0 0.00 0.02 0.02 74 1012.2
20260506223028 66 49 1.0 7.0 0.00 0.02 0.02 73 1012.2
20260506221529 68 307 0.0 6.0 0.00 0.02 0.02 71 1012.3
20260506220036 68 60 1.0 7.0 0.00 0.02 0.02 71 1012.1
20260506214528 68 30 1.0 10.0 0.00 0.02 0.02 71 1012.0
20260506213031 68 53 3.0 12.0 0.00 0.02 0.02 70 1011.7
20260506211532 71 72 1.0 8.0 0.00 0.02 0.02 68 1011.7
20260506210030 72 298 3.0 11.0 0.00 0.02 0.02 68 1011.9
20260506204530 73 76 2.0 11.0 0.00 0.02 0.02 68 1012.1
20260506203030 72 134 2.0 7.0 0.00 0.02 0.02 71 1012.0
20260506201529 72 162 3.0 11.0 0.00 0.02 0.02 72 1011.8
20260506200026 73 78 1.0 10.0 0.00 0.02 0.02 72 1011.5
20260506194528 76 129 2.0 9.0 0.00 0.02 0.02 70 1011.2
20260506193030 78 53 1.0 8.0 0.00 0.02 0.02 70 1011.1
20260506191527 78 113 2.0 8.0 0.00 0.02 0.02 69 1011.3
20260506190028 79 46 3.0 6.0 0.00 0.02 0.02 68 1011.5
20260506184526 77 63 2.0 7.0 0.00 0.02 0.02 71 1011.4
20260506183028 76 110 1.0 5.0 0.00 0.02 0.02 73 1011.6
20260506181528 74 84 0.0 7.0 0.00 0.02 0.02 76 1011.7
20260506180028 74 60 1.0 6.0 0.00 0.02 0.02 76 1011.5
20260506174529 71 131 1.0 6.0 0.00 0.02 0.02 79 1011.5
20260506173029 70 75 1.0 5.0 0.02 0.02 0.02 81 1011.9
20260506171528 67 66 3.0 8.0 0.02 0.02 0.02 86 1011.7
20260506170026 66 163 5.0 10.0 0.02 0.02 0.02 89 1011.9
20260506164530 65 49 3.0 8.0 0.02 0.02 0.02 91 1012.1
20260506163032 64 232 4.0 13.0 0.00 0.00 0.00 87 1012.7
20260506161533 66 25 4.0 9.0 0.00 0.00 0.00 87 1013.0
20260506160029 68 82 6.0 15.0 0.00 0.00 0.00 84 1012.9
20260506154530 72 79 3.0 12.0 0.00 0.00 0.00 80 1012.4
20260506153027 77 0 0.0 2.0 0.00 0.00 0.00 86 1011.9
20260506151529 77 85 0.0 2.0 0.00 0.00 0.00 86 1011.4
20260506150027 77 72 1.0 2.0 0.00 0.00 0.00 86 1011.2
20260506144527 77 0 0.0 4.0 0.00 0.00 0.00 86 1010.7
20260506143030 77 0 0.0 4.0 0.00 0.00 0.00 86 1010.4
20260506141533 77 58 1.0 2.0 0.00 0.00 0.00 87 1010.1
20260506140030 76 73 1.0 2.0 0.00 0.00 0.00 88 1010.5
20260506134529 75 95 1.0 2.0 0.00 0.00 0.00 89 1009.7
20260506133027 75 56 0.0 3.0 0.00 0.00 0.00 89 1009.7
20260506131528 75 0 0.0 4.0 0.00 0.00 0.00 89 1009.6
20260506130027 75 53 1.0 4.0 0.00 0.00 0.00 89 1009.5
20260506124526 75 96 0.0 3.0 0.00 0.00 0.00 89 1009.4
20260506123026 75 89 1.0 3.0 0.00 0.00 0.00 89 1009.3
20260506121529 75 56 0.0 3.0 0.00 0.00 0.00 89 1009.3
20260506120030 75 0 0.0 1.0 0.00 0.00 0.00 89 1009.0
20260506114527 75 0 0.0 1.0 0.00 0.00 0.00 88 1009.1
20260506113027 75 0 0.0 1.0 0.00 0.00 0.00 88 1009.1
20260506111526 75 0 0.0 1.0 0.00 0.00 0.00 88 1009.2
20260506110030 76 243 0.0 1.0 0.00 0.00 0.00 88 1009.1
20260506104529 76 0 0.0 1.0 0.00 0.00 0.00 88 1009.0
20260506103026 75 0 0.0 1.0 0.00 0.00 0.00 88 1009.0
20260506101525 75 0 1.0 6.0 0.00 0.00 0.00 88 1008.7
20260506100028 75 268 0.0 4.0 0.00 0.00 0.00 88 1008.6
20260506094528 75 252 1.0 5.0 0.00 0.00 0.00 88 1008.3